This is the latest recevied weather packets stored in our database for station/object K0NV. If no packets are shown the sender has not sent any weather packets the latest 10 day(s).
| Time | Temp. | Humidity | Pressure | Rain* | Wind** | Luminosity | Snow |
|---|---|---|---|---|---|---|---|
| 1777688106 | 11.67° C | 57% | 1019.3 hPa | 0 mm | - | 0 W/m² | - |
| 1777687803 | 11.67° C | 57% | 1019.1 hPa | 0 mm | - | 0 W/m² | - |
| 1777687501 | 11.67° C | 55% | 1019.3 hPa | 0 mm | - | 0 W/m² | - |
| 1777687197 | 11.67° C | 55% | 1019.2 hPa | 0 mm | - | 0 W/m² | - |
| 1777686895 | 11.67° C | 56% | 1019.1 hPa | 0 mm | - | 0 W/m² | - |
| 1777686591 | 12.22° C | 55% | 1019.1 hPa | 0 mm | - | 0 W/m² | - |
| 1777686288 | 12.22° C | 54% | 1018.9 hPa | 0 mm | - | 0 W/m² | - |
| 1777685985 | 12.22° C | 53% | 1018.9 hPa | 0 mm | - | 0 W/m² | - |
| 1777685681 | 12.22° C | 56% | 1018.8 hPa | 0 mm | - | 0 W/m² | - |
| 1777685376 | 12.78° C | 55% | 1018.8 hPa | 0 mm | - | 0 W/m² | - |
| 1777685074 | 12.78° C | 51% | 1018.8 hPa | 0 mm | - | 0 W/m² | - |
| 1777684772 | 12.78° C | 53% | 1018.7 hPa | 0 mm | - | 0 W/m² | - |
| 1777684467 | 13.33° C | 50% | 1018.7 hPa | 0 mm | - | 0 W/m² | - |
| 1777684165 | 13.89° C | 48% | 1018.3 hPa | 0 mm | - | 0 W/m² | - |
| 1777683861 | 13.89° C | 47% | 1018.6 hPa | 0 mm | - | 1 W/m² | - |
| 1777683558 | 14.44° C | 46% | 1018.1 hPa | 0 mm | - | 3 W/m² | - |
| 1777683256 | 14.44° C | 44% | 1018.3 hPa | 0 mm | - | 7 W/m² | - |
| 1777682954 | 14.44° C | 45% | 1018.4 hPa | 0 mm | - | 8 W/m² | - |
| 1777682649 | 15° C | 44% | 1018.1 hPa | 0 mm | - | 12 W/m² | - |
| 1777682347 | 15° C | 43% | 1018.2 hPa | 0 mm | - | 14 W/m² | - |
| 1777682044 | 15° C | 43% | 1018.3 hPa | 0 mm | - | 15 W/m² | - |
| 1777681740 | 15.56° C | 42% | 1018 hPa | 0 mm | - | 18 W/m² | - |
| 1777681438 | 15.56° C | 42% | 1017.8 hPa | 0 mm | - | 22 W/m² | - |
| 1777681135 | 15.56° C | 41% | 1017.8 hPa | 0 mm | - | 27 W/m² | - |
| 1777680832 | 15.56° C | 39% | 1017.7 hPa | 0 mm | - | 31 W/m² | - |
* Rain latest hour (hover to see other rain measurements)
** Current wind speed in m/s (hover to see current wind gust speed)